IZ3ZOD-13 Weather Reports


Display with metric or nautical units.
time (UTC)temp
F
wind
direction
speed
MPH
gust
MPH
rain 1hr
in
rain 24hr
in
rain mn
in
humidity
%
barometer
mb
20260503214003 59 7 0.0 2.0 0.00 0.00 0.00 76 1016.9
20260503213604 60 0 0.0 0.0 0.00 0.00 0.00 76 1016.9
20260503213204 60 0 0.0 0.0 0.00 0.00 0.00 76 1017.0
20260503212804 60 221 0.0 1.0 0.00 0.00 0.00 75 1016.9
20260503212404 60 221 0.0 1.0 0.00 0.00 0.00 75 1017.0
20260503212003 60 221 0.0 1.0 0.00 0.00 0.00 76 1017.1
20260503211603 60 0 0.0 0.0 0.00 0.00 0.00 76 1016.9
20260503211203 60 0 0.0 0.0 0.00 0.00 0.00 75 1016.9
20260503210803 60 0 0.0 0.0 0.00 0.00 0.00 74 1016.9
20260503210403 61 0 0.0 0.0 0.00 0.00 0.00 73 1016.9
20260503210004 61 0 0.0 0.0 0.00 0.00 0.00 73 1016.6
20260503205603 61 232 0.0 1.0 0.00 0.00 0.00 73 1017.0
20260503205203 61 226 0.0 2.0 0.00 0.00 0.00 72 1016.8
20260503204803 61 220 0.0 2.0 0.00 0.00 0.00 73 1016.8
20260503204403 61 193 0.0 1.0 0.00 0.00 0.00 73 1016.7
20260503204003 61 193 0.0 1.0 0.00 0.00 0.00 72 1016.7
20260503203603 62 193 0.0 1.0 0.00 0.00 0.00 72 1016.7
20260503203203 62 193 0.0 2.0 0.00 0.00 0.00 72 1016.8
20260503203015 62 193 1.0 2.0 0.00 0.00 0.00 71 1017.1
20260503202403 62 193 1.0 2.0 0.00 0.00 0.00 71 1016.9
20260503202003 62 194 1.0 2.0 0.00 0.00 0.00 71 1016.8
20260503201603 62 194 1.0 2.0 0.00 0.00 0.00 70 1016.8
20260503201203 62 194 1.0 2.0 0.00 0.00 0.00 70 1016.8
20260503200803 62 193 1.0 2.0 0.00 0.00 0.00 70 1016.9
20260503200403 62 192 2.0 2.0 0.00 0.00 0.00 69 1016.9
20260503200003 63 190 2.0 3.0 0.00 0.00 0.00 69 1016.9
20260503195815 63 189 2.0 3.0 0.00 0.00 0.00 69 1016.8
20260503195203 63 184 1.0 2.0 0.00 0.00 0.00 68 1017.0
20260503195014 63 183 1.0 2.0 0.00 0.00 0.00 68 1017.0
20260503194613 63 181 1.0 2.0 0.00 0.00 0.00 67 1017.0
20260503194003 64 179 2.0 2.0 0.00 0.00 0.00 66 1016.8
20260503193603 64 175 2.0 3.0 0.00 0.00 0.00 66 1016.7
20260503193416 64 172 2.0 3.0 0.00 0.00 0.00 66 1016.7
20260503192803 64 158 1.0 3.0 0.00 0.00 0.00 66 1016.9
20260503192403 65 138 1.0 2.0 0.00 0.00 0.00 66 1016.8
20260503192003 65 136 1.0 3.0 0.00 0.00 0.00 65 1016.6
20260503191603 65 144 1.0 3.0 0.00 0.00 0.00 65 1016.6
20260503191413 65 147 1.0 3.0 0.00 0.00 0.00 65 1016.7
20260503190803 65 154 1.0 2.0 0.00 0.00 0.00 66 1016.8
20260503190403 65 154 1.0 2.0 0.00 0.00 0.00 66 1016.7
20260503190003 65 149 1.0 2.0 0.00 0.00 0.00 66 1016.6
20260503185603 66 154 1.0 3.0 0.00 0.00 0.00 66 1016.6
20260503185203 66 160 2.0 3.0 0.00 0.00 0.00 66 1016.5
20260503184803 66 164 1.0 3.0 0.00 0.00 0.00 66 1016.6
20260503184403 66 167 0.0 2.0 0.00 0.00 0.00 66 1016.6
20260503184003 66 80 0.0 2.0 0.00 0.00 0.00 66 1016.5
20260503183603 66 78 1.0 3.0 0.00 0.00 0.00 66 1016.3
20260503183203 66 81 1.0 3.0 0.00 0.00 0.00 66 1016.2
20260503182803 66 112 0.0 3.0 0.00 0.00 0.00 66 1016.4
20260503182403 67 164 1.0 3.0 0.00 0.00 0.00 65 1016.4
20260503182004 67 166 1.0 3.0 0.00 0.00 0.00 65 1016.4
20260503181814 67 166 1.0 3.0 0.00 0.00 0.00 65 1016.3
20260503181203 68 118 0.0 2.0 0.00 0.00 0.00 63 1016.4
20260503180803 68 108 1.0 4.0 0.00 0.00 0.00 62 1016.5
20260503180403 69 108 1.0 4.0 0.00 0.00 0.00 61 1016.4
20260503180004 69 96 2.0 4.0 0.00 0.00 0.00 61 1016.3
20260503175603 69 96 2.0 4.0 0.00 0.00 0.00 60 1016.2
20260503175203 69 93 3.0 8.0 0.00 0.00 0.00 59 1016.2
20260503175015 70 95 3.0 8.0 0.00 0.00 0.00 59 1016.3
20260503174403 70 97 4.0 8.0 0.00 0.00 0.00 57 1016.4
20260503174003 71 92 3.0 5.0 0.00 0.00 0.00 57 1016.2
20260503173603 71 90 3.0 7.0 0.00 0.00 0.00 56 1016.2
20260503173203 71 92 3.0 7.0 0.00 0.00 0.00 55 1016.1
20260503172803 72 91 3.0 6.0 0.00 0.00 0.00 54 1016.1
20260503172403 72 88 3.0 7.0 0.00 0.00 0.00 52 1016.2
20260503172003 72 84 3.0 7.0 0.00 0.00 0.00 52 1016.1
20260503171603 72 86 3.0 9.0 0.00 0.00 0.00 52 1016.2
20260503171414 72 88 4.0 9.0 0.00 0.00 0.00 52 1016.0
20260503171013 72 95 4.0 9.0 0.00 0.00 0.00 51 1016.1
20260503170403 73 94 5.0 8.0 0.00 0.00 0.00 51 1016.2
20260503170217 73 93 5.0 7.0 0.00 0.00 0.00 51 1016.2
20260503160213 76 86 6.0 11.0 0.00 0.00 0.00 45 1016.5
20260503150803 76 47 4.0 9.0 0.00 0.00 0.00 42 1016.8
20260503150403 76 57 4.0 9.0 0.00 0.00 0.00 40 1016.8
20260503131417 82 211 1.0 4.0 0.00 0.00 0.00 28 1017.6
20260503130803 80 176 3.0 8.0 0.00 0.00 0.00 30 1017.9
20260503130403 80 153 4.0 8.0 0.00 0.00 0.00 28 1017.5
20260503110403 78 168 3.0 9.0 0.00 0.00 0.00 32 1018.6
20260503090403 74 130 2.0 4.0 0.00 0.00 0.00 38 1019.3
20260503081203 72 46 1.0 3.0 0.00 0.00 0.00 45 1019.5
20260503080803 71 51 1.0 3.0 0.00 0.00 0.00 46 1019.7
20260503080613 71 50 1.0 3.0 0.00 0.00 0.00 48 1019.6
20260503072803 69 16 1.0 3.0 0.00 0.00 0.00 53 1019.7
20260503072617 69 343 1.0 2.0 0.00 0.00 0.00 54 1019.8
20260503072003 68 355 0.0 2.0 0.00 0.00 0.00 55 1019.8
20260503071603 68 319 0.0 2.0 0.00 0.00 0.00 55 1019.6
20260503071203 67 311 0.0 2.0 0.00 0.00 0.00 55 1019.9
20260503070803 67 301 1.0 2.0 0.00 0.00 0.00 56 1019.8
20260503070614 67 329 1.0 3.0 0.00 0.00 0.00 57 1019.8
20260503054803 60 282 0.0 2.0 0.00 0.00 0.00 66 1019.5
20260503054403 59 276 0.0 2.0 0.00 0.00 0.00 66 1019.4
20260503054003 59 266 0.0 1.0 0.00 0.00 0.00 66 1019.5
20260503053603 59 261 0.0 2.0 0.00 0.00 0.00 67 1019.5
20260503053203 59 260 0.0 2.0 0.00 0.00 0.00 67 1019.6
20260503052803 58 258 0.0 1.0 0.00 0.00 0.00 68 1019.4
20260503052403 58 0 0.0 0.0 0.00 0.00 0.00 69 1019.5
20260503052213 58 0 0.0 0.0 0.00 0.00 0.00 68 1019.4
20260503051603 58 0 0.0 0.0 0.00 0.00 0.00 69 1019.4
20260503051203 57 0 0.0 0.0 0.00 0.00 0.00 70 1019.4
20260503050803 56 0 0.0 0.0 0.00 0.00 0.00 71 1019.3
20260503050615 56 0 0.0 0.0 0.00 0.00 0.00 71 1019.2
20260503050003 55 0 0.0 0.0 0.00 0.00 0.00 73 1019.4
20260503045603 54 0 0.0 0.0 0.00 0.00 0.00 73 1019.3
20260503045203 54 0 0.0 0.0 0.00 0.00 0.00 74 1019.4
20260503044803 53 0 0.0 0.0 0.00 0.00 0.00 74 1019.2
20260503044617 53 0 0.0 0.0 0.00 0.00 0.00 76 1019.4
20260503044003 52 0 0.0 0.0 0.00 0.00 0.00 76 1019.2
20260503043603 51 0 0.0 0.0 0.00 0.00 0.00 77 1019.3
20260503043203 51 0 0.0 0.0 0.00 0.00 0.00 77 1019.3
20260503042803 50 0 0.0 0.0 0.00 0.00 0.00 79 1019.3
20260503042614 50 0 0.0 0.0 0.00 0.00 0.00 79 1019.3
20260503042213 49 0 0.0 0.0 0.00 0.00 0.00 81 1019.1
20260503041603 48 0 0.0 0.0 0.00 0.00 0.00 82 1019.2
20260503041203 48 0 0.0 0.0 0.00 0.00 0.00 82 1019.3
20260503040803 48 0 0.0 0.0 0.00 0.00 0.00 83 1019.2
20260503040403 48 0 0.0 0.0 0.00 0.00 0.00 82 1019.2
20260503040004 48 0 0.0 0.0 0.00 0.00 0.00 82 1019.2
20260503035603 48 0 0.0 0.0 0.00 0.00 0.00 82 1019.4
20260503035203 48 0 0.0 0.0 0.00 0.00 0.00 82 1019.0
20260503034803 48 0 0.0 0.0 0.00 0.00 0.00 81 1019.1
20260503034403 48 0 0.0 0.0 0.00 0.00 0.00 81 1019.2
20260503034003 49 0 0.0 0.0 0.00 0.00 0.00 81 1019.1
20260503033603 49 0 0.0 0.0 0.00 0.00 0.00 80 1019.2
20260503033203 49 0 0.0 0.0 0.00 0.00 0.00 80 1019.2
20260503032803 49 0 0.0 0.0 0.00 0.00 0.00 80 1019.3
20260503032403 49 0 0.0 0.0 0.00 0.00 0.00 80 1019.2
20260503032003 49 0 0.0 0.0 0.00 0.00 0.00 79 1019.2
20260503031603 49 0 0.0 0.0 0.00 0.00 0.00 78 1019.1
20260503031203 49 0 0.0 0.0 0.00 0.00 0.00 78 1019.2
20260503030803 49 0 0.0 0.0 0.00 0.00 0.00 78 1019.2
20260503030403 49 0 0.0 0.0 0.00 0.00 0.00 78 1019.4
20260503030003 49 0 0.0 0.0 0.00 0.00 0.00 78 1019.1
20260503025603 49 0 0.0 0.0 0.00 0.00 0.00 78 1019.3
20260503025415 49 0 0.0 0.0 0.00 0.00 0.00 77 1019.1
20260503025014 50 0 0.0 0.0 0.00 0.00 0.00 77 1019.2
20260503024403 50 0 0.0 0.0 0.00 0.00 0.00 77 1019.2
20260503024003 50 0 0.0 0.0 0.00 0.00 0.00 77 1019.3
20260503023603 50 0 0.0 0.0 0.00 0.00 0.00 77 1019.5
20260503023203 50 0 0.0 0.0 0.00 0.00 0.00 77 1019.2
20260503023016 50 0 0.0 0.0 0.00 0.00 0.00 77 1019.4
20260503022403 50 0 0.0 0.0 0.00 0.00 0.00 77 1019.3
20260503022003 50 0 0.0 0.0 0.00 0.00 0.00 77 1019.4
20260503021814 50 0 0.0 0.0 0.00 0.00 0.00 76 1019.4
20260503021413 50 0 0.0 0.0 0.00 0.00 0.00 76 1019.3
20260503020803 50 0 0.0 0.0 0.00 0.00 0.00 76 1019.5
20260503020403 51 0 0.0 0.0 0.00 0.00 0.00 75 1019.5
20260503020217 51 0 0.0 0.0 0.00 0.00 0.00 75 1019.6
20260503015603 51 0 0.0 0.0 0.00 0.00 0.00 74 1019.4
20260503015203 51 0 0.0 0.0 0.00 0.00 0.00 74 1019.5
20260503014803 51 0 0.0 0.0 0.00 0.00 0.00 74 1019.6
20260503014403 51 0 0.0 0.0 0.00 0.00 0.00 73 1019.4
20260503014003 52 0 0.0 0.0 0.00 0.00 0.00 73 1019.5
20260503013603 52 0 0.0 0.0 0.00 0.00 0.00 72 1019.5
20260503013203 52 0 0.0 0.0 0.00 0.00 0.00 71 1019.4
20260503012803 52 0 0.0 0.0 0.00 0.00 0.00 71 1019.6
20260503012403 52 0 0.0 0.0 0.00 0.00 0.00 71 1019.6
20260503012003 52 0 0.0 0.0 0.00 0.00 0.00 72 1019.6
20260503011603 51 0 0.0 0.0 0.00 0.00 0.00 74 1019.6
20260503011203 51 0 0.0 0.0 0.00 0.00 0.00 73 1019.7
20260503010803 51 0 0.0 0.0 0.00 0.00 0.00 74 1019.6
20260503010613 51 0 0.0 0.0 0.00 0.00 0.00 74 1019.6
20260503010217 52 0 0.0 0.0 0.00 0.00 0.00 72 1019.7
20260503005603 53 0 0.0 0.0 0.00 0.00 0.00 70 1019.6
20260503005203 53 7 0.0 1.0 0.00 0.00 0.00 70 1019.6
20260503005015 53 7 0.0 1.0 0.00 0.00 0.00 70 1019.6
20260503004615 53 7 1.0 1.0 0.00 0.00 0.00 70 1019.6
20260503004003 54 13 1.0 2.0 0.00 0.00 0.00 68 1019.6
20260503003603 54 25 1.0 2.0 0.00 0.00 0.00 68 1019.6
20260503003203 53 43 1.0 2.0 0.00 0.00 0.00 69 1019.7
20260503002803 54 161 1.0 2.0 0.00 0.00 0.00 69 1019.8
20260503002403 55 190 0.0 1.0 0.00 0.00 0.00 66 1019.6
20260503002003 55 190 0.0 1.0 0.00 0.00 0.00 65 1019.7
20260503001603 55 0 0.0 0.0 0.00 0.00 0.00 65 1020.0
20260503001203 56 0 0.0 0.0 0.00 0.00 0.00 63 1019.9
20260503000803 56 0 0.0 0.0 0.00 0.00 0.00 62 1019.8
20260503000613 56 0 0.0 0.0 0.00 0.00 0.00 62 1019.8
20260503000213 56 0 0.0 0.0 0.00 0.00 0.00 62 1020.0
20260502235603 56 0 0.0 0.0 0.00 0.00 0.00 63 1020.0
20260502235203 56 0 0.0 0.0 0.00 0.00 0.00 63 1020.2
20260502234803 56 0 0.0 0.0 0.00 0.00 0.00 63 1020.0
20260502234403 56 0 0.0 0.0 0.00 0.00 0.00 63 1020.2
20260502234003 56 0 0.0 0.0 0.00 0.00 0.00 62 1020.2
20260502233603 57 190 0.0 1.0 0.00 0.00 0.00 61 1020.1
20260502233203 58 190 1.0 2.0 0.00 0.00 0.00 60 1020.2
20260502232803 58 192 1.0 2.0 0.00 0.00 0.00 58 1020.2
20260502232403 59 197 2.0 2.0 0.00 0.00 0.00 56 1020.3
20260502232003 60 201 2.0 4.0 0.00 0.00 0.00 55 1020.3
20260502231603 60 203 2.0 4.0 0.00 0.00 0.00 55 1020.5
20260502231203 60 204 3.0 4.0 0.00 0.00 0.00 54 1020.4
20260502230803 60 208 2.0 3.0 0.00 0.00 0.00 54 1020.5
20260502230403 60 210 2.0 3.0 0.00 0.00 0.00 54 1020.3
20260502230004 60 209 2.0 3.0 0.00 0.00 0.00 55 1020.4
20260502225603 60 208 2.0 3.0 0.00 0.00 0.00 54 1020.3
20260502225203 60 205 2.0 3.0 0.00 0.00 0.00 54 1020.3
20260502224803 60 202 2.0 3.0 0.00 0.00 0.00 54 1020.3
20260502224403 61 201 2.0 3.0 0.00 0.00 0.00 53 1020.5
20260502224003 61 204 2.0 4.0 0.00 0.00 0.00 53 1020.5
20260502223603 61 208 2.0 4.0 0.00 0.00 0.00 53 1020.4
20260502223203 61 211 3.0 4.0 0.00 0.00 0.00 52 1020.5
20260502222803 61 209 3.0 4.0 0.00 0.00 0.00 52 1020.3
20260502222613 61 205 2.0 4.0 0.00 0.00 0.00 53 1020.6
20260502222003 60 195 1.0 3.0 0.00 0.00 0.00 55 1020.4
20260502221817 59 194 1.0 2.0 0.00 0.00 0.00 56 1020.6
20260502221203 60 193 1.0 2.0 0.00 0.00 0.00 56 1020.6
20260502220803 59 193 1.0 2.0 0.00 0.00 0.00 56 1020.7
20260502220403 59 193 1.0 2.0 0.00 0.00 0.00 57 1020.5
20260502220004 59 193 1.0 2.0 0.00 0.00 0.00 57 1020.7
20260502215603 60 193 1.0 2.0 0.00 0.00 0.00 56 1020.6
20260502215203 60 196 2.0 2.0 0.00 0.00 0.00 55 1020.6
20260502215012 60 197 2.0 2.0 0.00 0.00 0.00 55 1020.6
20260502214617 60 201 2.0 3.0 0.00 0.00 0.00 54 1020.5
20260502214216 61 201 2.0 3.0 0.00 0.00 0.00 54 1020.7